This is the latest recevied weather packets stored in our database for station/object W6MAF. If no packets are shown the sender has not sent any weather packets the latest 10 day(s).
| Time | Temp. | Humidity | Pressure | Rain* | Wind** | Luminosity | Snow |
|---|---|---|---|---|---|---|---|
| 1788451969 | 17.78° C | 33% | - | 0 mm | 4.02 m/s, 201° | - | - |
| 1788451671 | 17.78° C | 34% | - | 0 mm | 4.47 m/s, 215° | - | - |
| 1788451370 | 17.78° C | 35% | - | 0 mm | 5.81 m/s, 215° | - | - |
| 1788451073 | 17.22° C | 37% | - | 0 mm | 5.36 m/s, 218° | - | - |
| 1788450775 | 17.22° C | 38% | - | 0 mm | 5.36 m/s, 217° | - | - |
| 1788450477 | 17.22° C | 39% | - | 0 mm | 6.26 m/s, 214° | - | - |
| 1788449883 | 16.67° C | 39% | - | 0 mm | 4.92 m/s, 238° | - | - |
| 1788449581 | 16.67° C | 41% | - | 0 mm | 2.68 m/s, 160° | - | - |
| 1788449283 | 16.11° C | 41% | - | 0 mm | 5.36 m/s, 231° | - | - |
| 1788448987 | 16.11° C | 41% | - | 0 mm | 5.36 m/s, 226° | - | - |
| 1788448688 | 16.11° C | 41% | - | 0 mm | 4.47 m/s, 233° | - | - |
| 1788448391 | 15.56° C | 41% | - | 0 mm | 4.92 m/s, 208° | - | - |
| 1788448093 | 15.56° C | 42% | - | 0 mm | 3.58 m/s, 240° | - | - |
| 1788447792 | 15° C | 42% | - | 0 mm | 4.92 m/s, 229° | - | - |
| 1788447494 | 15° C | 45% | - | 0 mm | 0.89 m/s, 214° | - | - |
| 1788447196 | 14.44° C | 46% | - | 0 mm | 1.34 m/s, 212° | - | - |
| 1788446898 | 14.44° C | 46% | - | 0 mm | 3.58 m/s, 176° | - | - |
| 1788446601 | 13.89° C | 48% | - | 0 mm | 4.47 m/s, 203° | - | - |
| 1788446303 | 13.89° C | 49% | - | 0 mm | 3.58 m/s, 211° | - | - |
| 1788446002 | 13.33° C | 50% | - | 0 mm | 3.13 m/s, 207° | - | - |
| 1788445704 | 13.33° C | 51% | - | 0 mm | 0.45 m/s, 301° | - | - |
| 1788445109 | 12.78° C | 52% | - | 0 mm | 5.36 m/s, 232° | - | - |
| 1788444811 | 12.78° C | 53% | - | 0 mm | 0.89 m/s, 217° | - | - |
| 1788444213 | 12.78° C | 54% | - | 0 mm | 0.89 m/s, 246° | - | - |
| 1788443915 | 12.22° C | 55% | - | 0 mm | 1.34 m/s, 239° | - | - |
* Rain latest hour (hover to see other rain measurements)
** Current wind speed in m/s (hover to see current wind gust speed)